{"data":{"norad_id":60083,"intl_designator":"2024-114E","name":"KINEIS-1E","alt_names":[],"object_type":"PAYLOAD","status":"ACTIVE","operator":null,"country":"FR","launch_date":"2024-06-20","launch_site_code":"RLLB","launch_vehicle":null,"mission":null,"orbit_class":"UNKNOWN","rcs_meters":null,"size_class":null,"mass_kg":null,"dimensions":null,"purposes":[],"wikipedia_slug":null,"has_3d_model":false,"image_url":null,"decayed_at":null,"tle_current":{"epoch":"2026-05-25T04:39:23.677056Z","epoch_age_seconds":65175,"freshness":"FRESH","line1":"1 60083U 24114E   26145.19402404 -.00000112  00000+0 -78424-5 0  9996","line2":"2 60083  97.8954 168.9693 0001189 298.9601  61.1492 14.80581265103981","mean_motion":14.80581265,"eccentricity":0.0001189,"inclination_deg":97.8954,"raan_deg":168.9693,"arg_perigee_deg":298.9601,"mean_anomaly_deg":61.1492,"bstar":-7.8424e-6,"rev_number":10398,"period_min":97.259099114698,"perigee_km":626.65699487666,"apogee_km":628.32293296868,"semimajor_km":7005.6269639227,"source":"CELESTRAK","updated_at":"2026-05-25T13:38:01.827056Z"}}}